Location: *
(32.8140°S, 174.6161°E)
Time: 07:54:29
(UTC+00:00)

Cosmos 2227 Rocket - Pass Details

Date: 10 December 2019
Orbit: 840 x 844 km, 71.0° (Epoch: 22 January)

Event Time Altitude Azimuth Distance (km) Brightness Sun altitude
Rises 13:19:08 0° 199° (SSW) 3,427 6.1 -32.2°
Reaches altitude 10° 13:21:37 10° 196° (SSW) 2,487 5.2 -32.0°
Enters shadow 13:26:24 60° 168° (SSE) 968 2.6 -31.7°
